Granbury, TX

12:05 AM CST on February 21, 2018 (GMT -0600)
Granbury

Weather History for KGDJ - September, 2013

Change the Weather History Date:

Sunday, September 1, 2013

  Actual Average (KSEP) Record (KSEP)
Temperature  
Mean Temperature 92 °F -  
Max Temperature 105 °F 91 °F 107 °F (1952)
Min Temperature 79 °F 68 °F 56 °F (1976)
Cooling Degree Days 27    
Growing Degree Days 42 (Base 50)    
Moisture  
Dew Point 62 °F    
Average Humidity 40    
Maximum Humidity 64    
Minimum Humidity 20    
Precipitation  
Precipitation 0.00 in - - ()
Sea Level Pressure  
Sea Level Pressure 29.85 in    
Wind  
Wind Speed 3 mph (SSE)    
Max Wind Speed 15 mph    
Max Gust Speed 25 mph    
Visibility 10 miles    
Events Rain , Thunderstorm    
Averages and records for this station are not official NWS values.
T = Trace of Precipitation, MM = Missing Value Source: NWS Daily Summary

Daily Weather History Graph

Daily Weather History Graph

Search for Another Location

Airport or City:

Trip Planner

Search our weather history database for the weather conditions in past years. The results will help you decide how hot, cold, wet, or windy it might be!

Date:

Astronomy

Sep. 01, 2013 Rise Set
Actual Time 7:06 AM CDT 7:55 PM CDT
Civil Twilight 6:41 AM CDT 8:20 PM CDT
Nautical Twilight 6:11 AM CDT 8:49 PM CDT
Astronomical Twilight 5:41 AM CDT 9:20 PM CDT
Moon 3:37 AM CDT (9/1) 5:27 PM CDT (9/1)
Length of Visible Light 13h 38m
Length of Day
12h 48m
Waning Crescent, 13% of the Moon is Illuminated
Sep 1
Waning Crescent
Sep 5
New
Sep 12
First Quarter
Sep 19
Full
Sep 26
Last Quarter

Hourly Weather History & Observations

Time (CDT) Temp. Heat Index Dew Point Humidity Pressure Visibility Wind Dir Wind Speed Gust Speed Precip Events Conditions
12:15 AM 87.3 °F 87.7 °F 62.4 °F 43% 29.83 in 10.0 mi Calm Calm - N/A   Clear
12:35 AM 87.1 °F 87.8 °F 62.6 °F 44% 29.83 in 10.0 mi Calm Calm - N/A   Clear
12:55 AM 86.4 °F 87.0 °F 62.6 °F 45% 29.84 in 10.0 mi ESE 3.5 mph - N/A   Clear
1:15 AM 86.4 °F 86.8 °F 62.2 °F 44% 29.84 in 10.0 mi Calm Calm - N/A   Clear
1:35 AM 85.3 °F 86.1 °F 62.8 °F 47% 29.84 in 10.0 mi Calm Calm - N/A   Clear
1:55 AM 86.4 °F 87.0 °F 62.6 °F 45% 29.84 in 10.0 mi Calm Calm - N/A   Clear
2:15 AM 84.2 °F 85.2 °F 63.0 °F 49% 29.85 in 10.0 mi Calm Calm - N/A   Clear
2:35 AM 85.1 °F 86.1 °F 63.3 °F 48% 29.85 in 10.0 mi Calm Calm - N/A   Clear
2:55 AM 84.4 °F 85.6 °F 63.9 °F 50% 29.85 in 10.0 mi Calm Calm - N/A   Clear
3:15 AM 84.7 °F 86.1 °F 64.4 °F 50% 29.85 in 10.0 mi Calm Calm - N/A   Clear
3:35 AM 84.2 °F 85.8 °F 64.6 °F 52% 29.85 in 10.0 mi Calm Calm - N/A   Clear
3:55 AM 84.6 °F 86.1 °F 64.4 °F 51% 29.85 in 10.0 mi Calm Calm - N/A   Clear
4:15 AM 85.1 °F 86.4 °F 64.2 °F 49% 29.85 in 10.0 mi Calm Calm - N/A   Clear
4:35 AM 83.7 °F 85.1 °F 64.4 °F 52% 29.86 in 10.0 mi ESE 4.6 mph - N/A   Clear
4:55 AM 83.3 °F 85.3 °F 65.8 °F 55% 29.86 in 10.0 mi ESE 4.6 mph - N/A   Clear
5:15 AM 83.5 °F 85.5 °F 65.8 °F 55% 29.86 in 10.0 mi Calm Calm - N/A   Clear
5:35 AM 83.3 °F 85.1 °F 65.3 °F 54% 29.86 in 10.0 mi Calm Calm - N/A   Clear
5:55 AM 81.7 °F 83.8 °F 66.2 °F 59% 29.86 in 10.0 mi Calm Calm - N/A   Clear
6:15 AM 79.9 °F - 65.8 °F 62% 29.86 in 10.0 mi Calm Calm - N/A   Clear
6:35 AM 80.1 °F 82.1 °F 66.0 °F 62% 29.87 in 10.0 mi ESE 4.6 mph - N/A   Clear
6:55 AM 80.1 °F 82.1 °F 66.2 °F 62% 29.87 in 10.0 mi Calm Calm - N/A   Clear
7:15 AM 79.7 °F - 66.4 °F 64% 29.88 in 10.0 mi Calm Calm - N/A   Clear
7:35 AM 79.9 °F - 66.4 °F 63% 29.88 in 10.0 mi Calm Calm - N/A   Clear
7:55 AM 81.0 °F 83.2 °F 66.4 °F 61% 29.89 in 10.0 mi Calm Calm - N/A   Clear
8:15 AM 82.0 °F 84.5 °F 66.7 °F 60% 29.90 in 10.0 mi Calm Calm - N/A   Clear
8:35 AM 83.3 °F 85.7 °F 66.7 °F 57% 29.90 in 10.0 mi Calm Calm - N/A   Clear
8:55 AM 86.5 °F 88.1 °F 64.8 °F 48% 29.90 in 10.0 mi South 4.6 mph - N/A   Clear
9:15 AM 88.7 °F 90.1 °F 64.2 °F 44% 29.90 in 10.0 mi SSW 5.8 mph - N/A   Clear
9:35 AM 89.6 °F 90.8 °F 63.5 °F 42% 29.91 in 10.0 mi SSW 10.4 mph - N/A   Clear
9:55 AM 90.9 °F 92.0 °F 63.5 °F 40% 29.91 in 10.0 mi SW 9.2 mph - N/A   Clear
10:15 AM 92.1 °F 93.2 °F 63.0 °F 38% 29.91 in 10.0 mi SSW 8.1 mph - N/A   Clear
10:35 AM 94.3 °F 94.9 °F 62.1 °F 34% 29.91 in 10.0 mi WSW 9.2 mph - N/A   Clear
10:55 AM 94.8 °F 95.3 °F 61.9 °F 33% 29.91 in 10.0 mi West 8.1 mph - N/A   Clear
11:15 AM 96.1 °F 96.9 °F 62.1 °F 32% 29.91 in 10.0 mi SW 8.1 mph - N/A   Clear
11:35 AM 97.5 °F 98.2 °F 61.7 °F 30% 29.91 in 10.0 mi West 3.5 mph - N/A   Clear
11:55 AM 99.1 °F 100.3 °F 61.7 °F 29% 29.90 in 10.0 mi West 5.8 mph - N/A   Clear
12:15 PM 100.8 °F 101.9 °F 61.3 °F 27% 29.90 in 10.0 mi West 8.1 mph - N/A   Clear
12:35 PM 100.4 °F 100.7 °F 60.1 °F 26% 29.89 in 10.0 mi Calm Calm - N/A   Clear
12:55 PM 100.9 °F 101.6 °F 60.1 °F 26% 29.89 in 10.0 mi Calm Calm - N/A   Clear
1:15 PM 102.7 °F 103.3 °F 59.5 °F 24% 29.88 in 10.0 mi Calm Calm - N/A   Clear
1:35 PM 100.4 °F 100.2 °F 59.0 °F 25% 29.87 in 10.0 mi South 3.5 mph - N/A   Clear
1:55 PM 102.2 °F 102.4 °F 59.0 °F 24% 29.87 in 10.0 mi NNW 3.5 mph - N/A   Scattered Clouds
2:15 PM 103.3 °F 103.5 °F 58.3 °F 23% 29.86 in 10.0 mi Calm Calm - N/A   Scattered Clouds
2:35 PM 102.2 °F 102.4 °F 58.5 °F 24% 29.85 in 10.0 mi Calm Calm - N/A   Scattered Clouds
2:55 PM 101.5 °F 101.9 °F 59.5 °F 25% 29.84 in 10.0 mi East 5.8 mph - N/A   Clear
3:15 PM 103.6 °F 104.1 °F 58.8 °F 23% 29.83 in 10.0 mi SE 4.6 mph - N/A   Scattered Clouds
3:35 PM 104.2 °F 104.3 °F 58.1 °F 22% 29.82 in 10.0 mi ESE 8.1 mph - N/A   Scattered Clouds
3:55 PM 105.4 °F 105.6 °F 57.4 °F 21% 29.82 in 10.0 mi East 6.9 mph - N/A   Clear
4:15 PM 104.9 °F 104.2 °F 56.8 °F 20% 29.81 in 10.0 mi East 6.9 mph - N/A   Clear
4:35 PM 104.9 °F 104.2 °F 56.3 °F 20% 29.81 in 10.0 mi Calm Calm - N/A   Clear
4:55 PM 104.0 °F 102.9 °F 56.1 °F 20% 29.80 in 10.0 mi East 6.9 mph - N/A   Clear
5:15 PM 104.9 °F 104.2 °F 55.6 °F 20% 29.80 in 10.0 mi ESE 5.8 mph - N/A   Clear
5:35 PM 104.5 °F 103.6 °F 55.8 °F 20% 29.79 in 10.0 mi East 6.9 mph - N/A   Clear
5:55 PM 104.0 °F 102.9 °F 55.8 °F 20% 29.79 in 10.0 mi SE 5.8 mph - N/A   Clear
6:15 PM 102.6 °F 101.9 °F 56.3 °F 22% 29.79 in 10.0 mi ESE 8.1 mph - N/A   Clear
6:35 PM 102.6 °F 101.4 °F 55.8 °F 21% 29.79 in 10.0 mi ESE 5.8 mph - N/A   Clear
6:55 PM 101.7 °F 100.6 °F 55.8 °F 22% 29.80 in 10.0 mi ESE 5.8 mph - N/A   Clear
7:15 PM 101.3 °F 100.6 °F 56.7 °F 23% 29.80 in 10.0 mi SE 8.1 mph - N/A   Mostly Cloudy
7:35 PM 99.5 °F 99.9 °F 60.1 °F 27% 29.81 in 10.0 mi SSE 10.4 mph 18.4 mph N/A   Mostly Cloudy
7:55 PM 97.7 °F 97.6 °F 59.5 °F 28% 29.82 in 10.0 mi South 11.5 mph - N/A   Scattered Clouds
8:15 PM 95.0 °F 95.6 °F 61.5 °F 33% 29.84 in 10.0 mi West 13.8 mph 25.3 mph N/A   Mostly Cloudy
8:35 PM 87.3 °F 90.5 °F 67.8 °F 52% 29.84 in 10.0 mi WSW 12.7 mph 19.6 mph N/A Rain , Thunderstorm Light Thunderstorms and Rain
8:55 PM 86.0 °F 88.5 °F 66.4 °F 52% 29.84 in 10.0 mi SW 15.0 mph - N/A Rain , Thunderstorm Light Thunderstorms and Rain
9:15 PM 86.0 °F 88.2 °F 65.8 °F 51% 29.85 in 10.0 mi SW 10.4 mph 19.6 mph N/A   Clear
9:35 PM 86.4 °F 88.4 °F 65.5 °F 50% 29.85 in 10.0 mi SW 9.2 mph 18.4 mph N/A   Clear
9:55 PM 88.0 °F 89.6 °F 64.9 °F 46% 29.85 in 10.0 mi SSW 10.4 mph - N/A   Clear
10:15 PM 88.5 °F 90.1 °F 64.9 °F 45% 29.85 in 10.0 mi South 8.1 mph - N/A   Scattered Clouds
10:35 PM 88.9 °F 90.0 °F 64.0 °F 43% 29.86 in 10.0 mi SSW 4.6 mph - N/A   Clear
10:55 PM 88.7 °F 90.1 °F 64.4 °F 44% 29.86 in 10.0 mi SSW 5.8 mph - N/A   Clear
11:15 PM 87.6 °F 89.4 °F 65.3 °F 47% 29.86 in 10.0 mi South 5.8 mph - N/A   Clear
11:35 PM 87.8 °F 89.7 °F 65.5 °F 47% 29.87 in 10.0 mi ESE 4.6 mph - N/A   Scattered Clouds
11:55 PM 88.5 °F 90.1 °F 64.9 °F 45% 29.87 in 10.0 mi ESE 6.9 mph - N/A   Scattered Clouds